Wind_Speed
6 7 7 7 7 7 7 8 9 10 11 11 11 11 11 10 11 11 10 10 9 9 8 7 7 7 6 6 6 6 5 5 5 6 6 6 6 6 6 6 6 6 6
5 6 7 7 6 6 7 8 9 9 10 10 10 11 10 10 10 10 9 9 8 8 7 7 7 6 6 6 5 5 5 5 5 5 5 5 6 5 5 6 6 6 6
5 6 7 7 7 7 7 7 8 9 9 9 9 10 10 10 9 9 9 8 8 7 7 7 7 6 6 6 6 5 5 5 5 5 5 5 5 5 5 5 5 6 6
4 6 7 7 7 8 8 8 8 8 9 9 9 9 9 9 9 9 9 8 7 7 7 7 6 6 6 6 6 5 5 4 5 5 5 4 4 5 5 5 5 6 6
4 5 6 7 8 8 8 8 8 8 8 8 8 8 8 8 8 8 8 8 7 6 6 6 6 6 6 6 5 5 5 5 5 4 4 4 4 4 4 5 6 6 6
4 5 6 7 8 8 8 8 8 8 8 8 8 8 8 8 7 7 7 7 6 6 6 6 6 5 5 5 4 4 5 5 4 4 4 4 4 4 4 5 5 6 5
4 4 5 6 7 8 9 9 8 8 8 8 8 7 7 7 7 6 6 6 6 6 6 6 5 5 5 4 4 4 4 4 4 4 4 3 4 4 4 5 5 5 5
2 3 4 6 7 8 9 9 9 8 8 8 8 7 7 6 6 6 5 5 6 5 5 5 5 4 4 4 3 4 4 4 3 3 3 3 3 4 4 4 4 4 4
1 1 3 6 7 8 9 9 8 8 7 7 7 7 7 6 5 5 5 4 4 4 4 4 4 4 3 3 3 3 3 3 3 2 3 3 3 3 3 4 4 4 4
0 1 2 5 6 7 8 8 8 8 7 7 7 7 6 5 5 5 4 4 3 3 3 4 3 3 3 3 3 3 3 2 2 2 2 2 2 3 3 3 3 3 4
1 1 2 4 6 7 8 9 9 8 8 8 7 7 6 5 5 5 4 3 3 2 3 3 3 3 2 2 2 3 3 2 2 1 2 2 2 2 2 3 3 3 4
2 2 3 4 5 6 7 9 9 9 9 9 8 7 6 5 4 4 4 3 2 2 2 3 3 2 2 2 2 2 2 2 2 1 1 1 1 1 2 2 3 4 4
3 3 3 5 6 7 8 9 10 10 10 9 9 8 7 6 5 5 4 3 2 1 2 2 2 2 2 1 2 2 2 1 1 1 0 1 1 2 2 2 3 4 5
5 4 4 5 6 7 8 10 11 11 11 10 10 9 8 7 6 5 4 3 2 1 1 1 2 2 2 1 1 1 1 1 1 1 1 1 1 1 2 2 3 4 5
5 5 6 7 8 8 9 11 13 13 12 11 11 11 10 8 8 6 5 4 3 2 1 0 1 1 1 1 1 1 1 1 1 1 1 1 1 1 2 2 3 3 4
7 6 7 8 9 9 10 11 13 14 14 13 13 12 11 10 9 8 6 5 4 3 2 1 1 1 1 1 1 2 2 1 1 1 1 2 2 1 1 1 2 2 3
8 8 9 10 10 10 11 12 13 14 15 14 14 13 13 12 11 9 8 6 4 4 3 2 1 1 1 1 2 2 2 1 1 1 2 2 2 2 1 1 2 2 3
10 10 10 11 11 12 11 12 14 15 15 15 15 14 14 13 12 11 9 7 6 5 4 3 2 2 2 2 2 2 2 1 1 1 1 2 2 2 1 1 1 1 1
11 11 11 11 11 11 12 13 14 14 15 16 15 15 15 15 13 12 11 9 7 6 6 5 4 3 3 3 3 3 2 1 1 1 1 2 2 2 2 1 1 1 1
11 11 11 10 10 11 11 12 14 14 14 15 16 15 15 15 14 13 12 10 9 8 7 6 5 5 4 4 3 3 3 2 1 0 1 1 2 2 2 2 1 1 1
12 12 11 10 10 11 12 12 13 15 14 15 16 16 15 16 15 14 13 12 10 9 8 7 7 6 6 5 5 4 3 3 2 2 1 0 1 1 1 2 2 2 2
12 13 13 11 11 12 12 12 12 15 15 15 17 16 16 16 16 15 15 13 12 10 10 9 8 8 7 7 6 5 5 4 4 3 2 1 1 0 1 1 1 1 2
13 13 13 12 10 9 10 11 12 14 15 15 15 16 17 17 17 16 15 14 13 12 11 10 10 9 9 8 7 7 7 6 5 5 4 3 2 2 1 1 1 2 2
12 13 12 10 10 10 10 11 12 14 15 16 16 17 17 17 17 17 15 15 14 13 12 12 11 11 10 10 9 9 8 8 7 6 5 5 4 4 3 3 3 3 4
12 12 11 11 10 9 9 10 12 14 15 17 18 17 16 17 18 18 16 15 14 14 13 13 13 12 11 11 11 10 10 9 8 8 7 7 6 6 6 6 6 6 6
11 11 11 11 10 9 9 10 12 13 15 16 17 17 17 17 17 18 17 16 16 15 15 14 14 13 12 12 12 11 11 10 10 9 9 9 8 8 8 8 8 8 8
Wind_Direction
135 140 135 137 134 135 134 131 128 124 119 115 109 105 101 98 97 95 92 90 90 90 89 87 86 87 88 86 86 89 92 95 96 96 96 99 104 105 104 107 110 117 116
147 154 151 154 155 152 144 136 131 126 122 118 114 109 105 101 97 95 93 92 91 90 89 88 87 87 88 86 86 90 93 95 100 102 99 101 105 105 108 108 111 117 119
153 163 165 167 170 168 159 151 141 134 130 124 119 114 109 104 99 96 95 94 92 89 88 87 85 85 87 88 88 91 97 98 106 107 107 105 106 107 108 114 117 121 125
153 165 173 175 176 173 166 160 151 144 138 129 123 118 113 107 103 101 98 95 92 89 87 87 85 83 86 90 90 91 95 100 102 108 110 107 107 111 114 121 124 128 129
158 167 176 184 181 177 174 170 161 153 145 136 129 125 119 113 109 105 101 97 92 87 86 87 86 84 85 89 90 90 92 97 103 112 115 112 111 116 121 129 130 132 133
156 166 175 183 184 181 179 176 170 163 155 147 139 132 124 117 113 109 104 99 92 87 85 87 88 86 87 89 92 95 96 98 103 112 117 119 119 121 128 134 137 137 139
147 166 179 185 188 186 185 182 177 171 164 156 148 140 131 123 118 113 106 99 93 89 85 83 85 86 87 88 91 99 101 102 102 110 117 123 125 127 133 138 143 145 146
129 162 186 190 191 191 189 186 181 176 170 164 159 148 139 131 123 117 112 103 93 88 83 80 81 83 87 91 92 100 106 108 103 106 114 121 127 131 135 142 146 150 148
90 178 201 206 198 196 194 191 188 183 178 172 168 158 147 140 132 130 122 109 97 89 82 79 81 81 86 94 96 99 101 102 101 109 120 131 132 135 138 142 150 156 156
34 234 222 219 211 206 201 199 195 190 186 181 173 167 155 151 144 144 133 121 107 94 82 76 76 81 85 87 91 94 93 93 96 115 132 140 147 151 154 156 164 172 171
316 263 238 229 223 220 214 207 202 199 197 193 185 177 168 163 155 154 147 138 122 101 85 74 72 83 91 83 81 82 86 86 96 117 135 149 161 173 180 181 184 184 185
311 268 241 232 230 226 217 211 209 207 204 202 195 187 182 175 164 162 161 156 143 114 80 70 71 86 91 84 84 82 84 86 85 105 167 187 193 203 202 208 203 198 196
329 286 249 240 238 235 227 221 220 218 215 209 204 196 193 187 183 177 179 178 172 134 79 64 74 89 96 92 87 90 91 89 82 72 82 226 233 235 224 213 208 211 207
319 290 261 254 245 241 236 231 230 226 225 220 214 209 206 204 202 195 196 202 208 204 69 53 79 98 109 112 98 106 100 73 66 60 41 359 278 256 237 224 222 228 223
312 290 274 267 255 249 244 238 234 231 228 225 223 221 217 215 214 212 209 218 224 229 228 134 107 132 132 127 122 120 110 73 66 70 32 19 359 301 269 254 240 233 226
307 292 283 278 265 257 250 243 237 233 231 230 229 224 222 221 217 216 217 220 221 222 218 201 187 171 158 142 136 137 125 95 79 72 51 30 10 338 305 277 255 228 225
309 298 285 279 269 262 256 246 238 233 232 230 232 226 224 223 222 218 217 218 219 220 216 212 206 189 184 163 155 151 137 111 82 60 45 32 18 3 336 306 287 260 239
313 305 297 285 275 266 260 251 241 235 233 232 233 227 223 222 221 219 218 219 220 220 218 215 212 200 184 168 161 163 151 110 80 52 37 25 22 22 19 352 339 313 269
314 310 306 291 274 267 264 255 242 237 234 232 230 227 223 220 220 222 220 220 222 221 217 216 218 213 200 185 174 176 174 147 123 74 45 36 36 27 23 16 1 333 303
312 311 308 298 280 269 265 253 242 236 233 229 228 228 224 221 222 224 223 224 223 221 220 217 219 219 212 204 199 199 200 201 221 270 19 35 31 19 17 30 27 2 322
312 313 311 301 281 272 261 251 242 234 229 228 227 226 226 222 222 226 225 224 223 221 222 222 223 224 219 218 217 216 214 220 233 245 256 307 5 14 28 30 21 3 349
308 307 305 301 292 276 257 243 237 231 231 231 230 228 226 225 226 227 227 226 223 223 224 225 226 224 222 221 220 220 222 226 229 230 234 237 252 292 0 14 24 8 347
303 302 300 297 295 280 257 244 238 232 232 232 231 229 228 228 228 227 227 226 225 226 226 227 227 226 224 224 223 225 230 231 231 235 238 241 247 255 287 309 315 324 324
302 301 301 305 295 282 262 250 244 237 233 233 231 231 230 228 226 225 227 226 226 228 230 230 229 228 227 227 227 229 231 233 237 242 247 251 253 257 266 274 285 293 300
303 305 302 298 296 283 261 250 251 243 239 236 233 232 229 226 225 226 226 225 227 229 231 232 231 230 231 231 231 231 233 236 241 247 254 257 256 257 262 269 276 281 286
303 302 304 300 294 283 268 257 257 247 240 235 233 233 229 228 228 228 228 229 231 232 234 234 232 231 232 233 233 233 236 240 245 249 255 258 260 262 264 266 272 276 279
Height
5891 5891 5892 5893 5893 5894 5894 5895 5895 5895 5896 5896 5896 5896 5896 5896 5896 5897 5897 5897 5897 5897 5897 5897 5897 5897 5897 5897 5896 5896 5896 5896 5896 5895 5895 5895 5895 5895 5895 5895 5894 5894 5894
5891 5892 5892 5893 5894 5894 5895 5895 5896 5896 5896 5896 5896 5897 5897 5897 5897 5897 5897 5898 5898 5898 5898 5898 5898 5898 5897 5897 5897 5897 5897 5897 5896 5896 5896 5896 5896 5896 5896 5896 5895 5895 5895
5891 5892 5892 5893 5894 5895 5895 5896 5896 5896 5897 5897 5897 5897 5898 5898 5898 5898 5898 5898 5898 5898 5898 5898 5898 5898 5898 5898 5897 5897 5897 5897 5897 5897 5897 5897 5896 5896 5896 5896 5897 5897 5897
5891 5892 5892 5893 5894 5895 5895 5896 5896 5897 5897 5897 5898 5898 5898 5898 5898 5898 5899 5899 5899 5899 5899 5899 5899 5899 5899 5898 5898 5898 5897 5897 5897 5897 5897 5897 5897 5897 5897 5897 5898 5898 5898
5891 5892 5892 5893 5894 5894 5895 5896 5896 5897 5897 5898 5898 5898 5898 5898 5899 5899 5899 5899 5899 5899 5899 5899 5899 5899 5899 5899 5899 5898 5898 5898 5898 5898 5898 5898 5898 5898 5898 5898 5898 5899 5899
5891 5892 5892 5893 5894 5894 5895 5896 5896 5897 5897 5898 5898 5898 5899 5899 5899 5899 5899 5900 5900 5900 5900 5899 5899 5899 5899 5899 5899 5899 5899 5899 5899 5899 5898 5899 5899 5899 5899 5899 5899 5900 5900
5891 5891 5892 5892 5893 5894 5895 5895 5896 5896 5897 5898 5898 5898 5899 5899 5899 5900 5900 5900 5900 5900 5900 5900 5899 5899 5899 5899 5899 5900 5900 5900 5900 5899 5899 5899 5899 5899 5900 5900 5900 5900 5901
5891 5891 5892 5892 5893 5894 5894 5895 5895 5896 5897 5897 5898 5898 5899 5899 5900 5900 5900 5900 5900 5900 5900 5900 5900 5900 5900 5900 5900 5900 5900 5900 5900 5900 5900 5900 5900 5900 5900 5900 5901 5901 5901
5891 5891 5891 5892 5892 5893 5894 5895 5895 5896 5896 5897 5897 5898 5899 5899 5900 5900 5900 5900 5900 5900 5900 5900 5900 5900 5900 5900 5900 5900 5900 5900 5900 5900 5900 5900 5900 5900 5901 5901 5901 5902 5902
5891 5891 5891 5891 5892 5892 5893 5894 5895 5896 5896 5897 5897 5898 5898 5899 5899 5899 5900 5900 5900 5900 5900 5900 5900 5900 5900 5900 5900 5900 5900 5900 5900 5900 5900 5900 5901 5901 5901 5901 5901 5902 5902
5890 5890 5891 5891 5891 5892 5892 5893 5894 5895 5895 5896 5897 5897 5898 5898 5898 5899 5900 5900 5900 5900 5900 5900 5900 5900 5900 5900 5900 5900 5900 5900 5900 5900 5900 5900 5901 5901 5901 5901 5901 5902 5902
5890 5890 5890 5890 5890 5891 5891 5892 5893 5893 5894 5895 5896 5897 5897 5898 5898 5899 5899 5899 5900 5900 5900 5900 5900 5900 5900 5900 5900 5900 5900 5900 5900 5900 5900 5900 5901 5901 5901 5901 5901 5901 5902
5889 5889 5889 5889 5889 5890 5890 5891 5891 5892 5893 5894 5895 5896 5897 5897 5897 5898 5898 5899 5899 5900 5900 5900 5900 5900 5900 5900 5900 5900 5900 5900 5900 5900 5900 5900 5900 5900 5900 5900 5901 5901 5901
5888 5888 5888 5888 5888 5888 5888 5889 5890 5891 5892 5893 5894 5895 5896 5896 5897 5897 5898 5898 5899 5899 5899 5899 5900 5900 5900 5900 5900 5900 5900 5900 5900 5900 5900 5900 5900 5900 5900 5900 5900 5900 5901
5887 5887 5887 5886 5886 5886 5886 5887 5888 5889 5890 5891 5892 5893 5894 5895 5896 5897 5897 5898 5898 5899 5899 5899 5899 5899 5900 5900 5900 5900 5900 5900 5900 5900 5900 5900 5900 5900 5900 5900 5900 5900 5900
5886 5885 5885 5885 5884 5884 5884 5884 5885 5887 5888 5889 5890 5891 5893 5894 5895 5896 5897 5897 5898 5898 5898 5899 5899 5899 5899 5899 5900 5900 5900 5900 5900 5900 5900 5900 5899 5899 5899 5899 5899 5899 5899
5884 5883 5882 5882 5881 5881 5881 5882 5882 5883 5885 5887 5888 5889 5891 5893 5894 5895 5896 5896 5897 5897 5898 5898 5899 5899 5899 5899 5900 5900 5900 5900 5900 5900 5900 5899 5899 5899 5899 5899 5899 5899 5899
5882 5880 5880 5879 5878 5878 5878 5879 5879 5880 5882 5884 5885 5887 5888 5890 5892 5893 5895 5895 5896 5896 5897 5898 5898 5898 5899 5899 5900 5900 5900 5900 5900 5900 5900 5899 5899 5899 5899 5898 5898 5899 5899
5879 5878 5876 5875 5875 5875 5875 5876 5877 5878 5879 5881 5883 5884 5886 5888 5890 5891 5893 5894 5895 5895 5896 5897 5897 5898 5899 5899 5899 5900 5900 5900 5900 5900 5900 5899 5899 5899 5898 5898 5898 5898 5898
5877 5875 5873 5872 5872 5871 5872 5872 5873 5875 5877 5878 5880 5882 5883 5885 5888 5889 5891 5892 5893 5894 5895 5896 5896 5897 5898 5898 5899 5899 5900 5900 5900 5900 5900 5899 5899 5899 5898 5898 5898 5898 5898
5874 5872 5871 5870 5869 5869 5869 5869 5870 5872 5874 5876 5878 5879 5881 5883 5885 5887 5889 5890 5891 5893 5894 5895 5895 5896 5897 5898 5899 5899 5899 5899 5900 5900 5900 5899 5899 5899 5898 5898 5898 5898 5898
5872 5870 5869 5867 5866 5866 5866 5866 5868 5869 5871 5873 5875 5877 5879 5881 5883 5885 5887 5888 5889 5891 5892 5893 5894 5895 5896 5897 5897 5898 5899 5900 5899 5899 5899 5899 5899 5899 5898 5898 5898 5897 5897
5869 5867 5866 5864 5864 5863 5863 5864 5865 5867 5868 5871 5873 5875 5876 5878 5880 5883 5884 5886 5888 5889 5890 5892 5893 5894 5895 5896 5896 5897 5898 5898 5899 5899 5899 5899 5899 5899 5898 5898 5898 5897 5897
5866 5865 5864 5862 5862 5861 5861 5862 5863 5864 5866 5868 5869 5871 5874 5876 5878 5880 5882 5884 5885 5887 5888 5890 5891 5892 5893 5894 5895 5896 5897 5897 5898 5898 5898 5898 5898 5898 5898 5897 5897 5897 5896
5863 5862 5861 5860 5860 5859 5859 5860 5861 5862 5863 5865 5867 5869 5871 5873 5875 5877 5879 5881 5883 5884 5886 5887 5888 5890 5891 5892 5893 5894 5895 5895 5896 5897 5897 5897 5897 5897 5896 5896 5896 5895 5895
5862 5861 5859 5858 5857 5857 5857 5858 5858 5859 5860 5862 5864 5866 5868 5870 5872 5874 5876 5878 5880 5882 5883 5884 5886 5887 5889 5890 5891 5892 5893 5893 5894 5894 5895 5895 5895 5895 5895 5894 5894 5894 5893